Regional Weather Roundup
Issued by NWS Boston, MA

Current Version | Previous Version | Text Only | Print | Product List | Glossary On
Versions: 1 2 3 4 5 6 7 8 9 10 11 12 13 14 15 16 17 18 19 20 21 22 23 24 25 26 27 28 29 30 31 32 33 34 35 36 37 38 39 40 41 42 43 44 45 46 47 48 49 50
000
ASUS41 KBOX 112210
RWRBOX

REGIONAL WEATHER ROUNDUP
NATIONAL WEATHER SERVICE BOSTON/NORTON MA
500 PM EST TUE DEC 11 2018

NOTE:  "FAIR" INDICATES FEW OR NO CLOUDS BELOW 12,000 FEET WITH NO
SIGNIFICANT WEATHER AND/OR OBSTRUCTIONS TO VISIBILITY.

MAZALL-112300-
EASTERN MASSACHUSETTS

CITY           SKY/WX    TMP DP  RH WIND       PRES   REMARKS
BOSTON         FAIR      34  17  50 S7        29.98F WCI  28
BEVERLY        FAIR      30  14  51 CALM      29.97F
LAWRENCE       FAIR      32  14  47 CALM      29.99F
BEDFORD        FAIR      28  15  58 CALM      29.96F
BLUE HILL        N/A     30  18  60 S10       29.94F WCI  21
NORWOOD        FAIR      33  21  61 S5        29.98F WCI  29
MARSHFIELD     FAIR      30  19  64 CALM      29.98F
PLYMOUTH       CLOUDY    29  20  69 E5        29.98F WCI  24
TAUNTON        CLOUDY    31  22  69 CALM      29.98F
NEW BEDFORD    CLOUDY    34  21  59 CALM      29.98F
$$

MAZALL-112300-
CAPE COD AND THE ISLANDS

CITY           SKY/WX    TMP DP  RH WIND       PRES   REMARKS
FALMOUTH       CLOUDY    30  23  74 CALM      29.99F
HYANNIS        FAIR      30  23  75 CALM      29.98F
CHATHAM        FAIR      31  24  75 CALM      30.00F
PROVINCETOWN   MOCLDY    35  23  61 S3        30.00S
NANTUCKET      MOCLDY    30  22  72 NE3       29.99F
MARTHAS VNYRD  FAIR      28  21  75 CALM      29.98F
$$

MAZALL-112300-
CENTRAL AND WESTERN MASSACHUSETTS

CITY           SKY/WX    TMP DP  RH WIND       PRES   REMARKS
WORCESTER      FAIR      28  16  60 W5        29.92F WCI  23
FITCHBURG      FAIR      27  16  63 CALM      29.97S
ORANGE         FAIR      27  17  66 CALM      29.96F
SPRINGFIELD    PTCLDY    27  17  65 CALM      29.95F
WESTFIELD      FAIR      28  16  60 CALM      29.96S
NORTH ADAMS    CLOUDY    27  18  69 SW3       29.96F
PITTSFIELD     FAIR      26  15  63 CALM      29.90F
$$

RIZALL-112300-
RHODE ISLAND

CITY           SKY/WX    TMP DP  RH WIND       PRES   REMARKS
PROVIDENCE     MOCLDY    34  25  69 S6        29.98F WCI  29
NEWPORT        CLOUDY    34  25  69 CALM      29.97F
BLOCK ISLAND   CLOUDY    36  29  75 E3        29.97
SMITHFIELD     CLOUDY    30  20  66 CALM      29.96F
WESTERLY       CLOUDY    38  29  70 N6        29.96F
$$

CTZALL-112300-
CONNECTICUT

CITY           SKY/WX    TMP DP  RH WIND       PRES   REMARKS
BRADLEY INTL   FAIR      29  18  63 S5        29.96F WCI  24
HARTFORD       FAIR      32  20  61 CALM      29.97F
BRIDGEPORT     FAIR      34  25  69 CALM      29.97F
DANBURY        FAIR      30  21  69 CALM      29.95F
GROTON         MOCLDY    32  27  81 N5        29.96F WCI  27
NEW HAVEN      PTCLDY    37  27  65 CALM      29.97F
CHESTER        FAIR      32  25  74 CALM      29.95F
MERIDEN        FAIR      29  21  72 CALM      29.97S
WILLIMANTIC    CLOUDY    30  23  75 CALM      29.97F
OXFORD         FAIR      32  23  69 CALM      29.94F
$$

MEZ002-015-021-024-NHZ003-005-008-011-012-014-VTZ005-008-112300-
NORTHERN NEW ENGLAND

CITY           SKY/WX    TMP DP  RH WIND       PRES   REMARKS
PORTLAND ME    FAIR      27  18  69 VRB5      29.99F WCI  22
BANGOR ME      CLOUDY    24  15  68 CALM      30.02F
CONCORD NH     FAIR      24  14  65 E3        29.97F
MANCHESTER NH  FAIR      30  15  53 N3        29.96S
NASHUA NH      FAIR      28  18  66 CALM      29.97F
PORTSMOUTH NH  CLEAR     30  13  49 CALM      29.96F
JAFFREY NH     CLOUDY    26  19  74 CALM      29.93F
KEENE NH       CLOUDY    26  17  68 NE3       29.96F
BURLINGTON VT  MOCLDY    29  17  61 S5        29.96R WCI  24
MT. WASHINGTON PTCLDY     7  -2  66 W15         N/A  WCI -11
$$

NYZ052-076-112300-
EASTERN NEW YORK

CITY           SKY/WX    TMP DP  RH WIND       PRES   REMARKS
ALBANY         CLOUDY    29  17  61 NW7       29.99F WCI  22
NEW YORK CITY  FAIR      38  27  64 S9        29.96F WCI  31
$$

ANZALL-112300-
MARINE OBSERVATIONS

STATION/POSITION TIME  TEMP    WIND        PRES    VSBY  WAVE
                       AIR SEA DIR/SP/G                  HT/PER
                 (UTC) (F)     (DEG/KT/KT) (MB)    (MI)  (FT/S)
BOSTON BUOY      NOT AVBL
BUZZARDS BAY     2100   36     160/  3/  4 1016.9R
NANTUCKET SOUND  NOT AVBL
MASS BAY-STELLWA 2104   34 45  210/  2/  2 1014.2F  1 7/8  2/11
ISLE OF SHOALS   2100   34     220/  8/ 10 1015.3F
S OF BLOCK IS    2143      50                N/A           4/10
$$

......................KEY.........................
  SKY/WX - SKY CONDITION/PRESENT WEATHER
  TMP    - TEMPERATURE IN FAHRENHEIT
  DWPT   - DEWPOINT IN FAHRENHEIT
  RH     - RELATIVE HUMIDITY IN PERCENT
  WIND   - DIRECTION AND SPEED IN MPH
  PRES   - MEAN SEA LEVEL PRESSURE IN INCHES OF HG
  WCI    - WIND CHILL INDEX
  VSB    - VISIBILITY IN MILES
  HX     - HEAT INDEX
  TC     - TEMPERATURE IN CELSIUS
  VRB    - VARIABLE WIND DIRECTION
  N/A    - NOT AVAILABLE



USA.gov is the U.S. government's official web portal to all federal, state and local government web resources and services.